SCP
3 3 3 2 1 1 1 1 1 1 1 1 1 1 1 1 1 1 1 1 1 1 1 1 1 1 1 1 1 1 1 1 0 0 0 0 0 0 0 0 0 0 0
2 2 3 2 1 1 1 1 1 1 1 1 1 1 1 1 1 1 1 1 1 1 1 1 1 1 1 1 1 1 1 1 1 0 0 0 0 0 0 0 0 0 0
2 2 2 2 1 1 1 1 1 1 1 1 1 1 1 1 1 1 1 1 1 1 1 1 1 1 1 1 1 1 1 1 1 1 1 1 0 0 0 0 0 0 0
2 2 2 2 2 2 1 1 1 1 1 1 1 1 1 1 1 1 1 1 1 1 2 2 2 1 1 1 1 2 2 1 1 1 1 1 0 0 0 0 0 0 0
2 2 2 2 2 2 2 1 1 1 1 1 1 1 1 1 1 1 1 1 1 2 2 2 2 2 2 2 2 2 2 1 1 1 1 1 1 1 0 0 0 0 1
2 2 2 2 2 2 2 1 1 1 1 1 1 1 1 1 2 2 1 1 2 2 3 3 2 2 2 2 2 2 2 2 2 2 1 1 1 1 1 1 1 1 1
2 2 2 2 2 2 2 1 1 1 1 1 1 1 1 1 2 2 1 1 2 2 2 3 3 3 3 3 2 3 3 2 2 2 2 2 1 1 1 1 1 1 1
2 3 3 3 3 3 2 2 2 2 1 1 1 1 1 1 1 1 1 1 1 1 2 2 2 3 3 3 2 2 3 3 2 2 2 2 2 2 1 1 1 1 1
2 2 3 3 3 3 3 2 2 2 2 1 1 1 1 1 1 1 1 1 1 1 2 2 2 3 3 3 3 2 2 2 2 2 2 2 2 2 1 1 1 1 1
2 2 3 3 3 3 3 3 3 2 2 1 1 1 1 1 1 1 1 1 2 2 2 2 2 3 4 4 3 3 2 2 2 2 2 2 2 2 1 1 1 1 1
3 3 3 3 2 2 2 3 3 3 2 2 2 2 2 2 2 1 1 1 2 3 3 2 2 3 4 4 3 3 2 2 2 2 2 2 2 2 1 1 1 1 1
3 3 3 3 3 2 2 2 2 2 2 2 2 2 2 2 2 1 1 1 2 3 3 3 3 4 4 3 3 2 2 2 1 1 1 1 1 1 1 1 1 1 1
3 3 4 4 4 3 3 2 2 2 2 2 2 2 2 2 2 2 2 2 2 2 3 4 4 5 4 3 2 2 1 1 1 1 1 1 1 1 1 1 1 1 1
3 4 5 6 5 4 3 3 2 2 2 2 2 2 2 2 2 2 3 3 3 3 3 3 4 5 4 3 2 1 1 1 1 0 0 0 1 1 1 1 1 1 1
4 5 7 7 6 5 4 3 2 2 2 2 2 3 3 3 2 3 3 3 3 3 3 3 3 3 3 2 2 1 1 1 1 0 0 0 0 0 0 0 0 0 0
5 6 8 8 7 5 4 3 3 3 3 3 3 3 3 3 2 2 2 2 3 3 3 3 2 1 1 1 1 2 2 1 1 1 0 0 0 0 0 0 0 0 0
8 9 9 9 8 6 4 3 3 3 3 3 3 3 3 3 2 2 2 2 2 2 3 2 2 1 1 1 1 2 2 2 1 1 0 0 0 0 0 0 0 0 0
10 10 10 10 8 6 5 4 3 3 3 3 3 3 2 3 3 3 3 3 3 3 3 2 2 2 1 1 1 1 2 2 1 1 0 0 0 0 0 0 0 0 0
9 9 10 10 9 7 5 5 4 4 4 4 3 3 3 3 3 3 3 3 3 3 3 2 2 2 1 1 1 1 1 1 1 1 0 0 0 0 0 0 0 0 0
10 10 10 10 10 9 6 5 5 4 4 4 4 3 3 3 3 3 3 3 3 3 3 2 2 2 2 2 2 1 1 1 1 1 1 0 0 0 0 0 0 0 0
12 12 11 11 12 10 7 5 5 5 4 4 4 4 4 3 3 3 3 3 3 3 3 3 2 2 2 2 2 2 1 1 1 1 1 1 1 0 0 0 0 0 0
13 13 13 13 14 11 7 6 6 6 6 5 5 5 4 4 3 3 2 2 2 3 3 3 3 3 2 2 2 2 2 2 2 2 1 1 1 1 1 0 0 0 0
15 16 16 16 15 11 6 5 6 6 6 6 6 5 5 4 4 4 3 3 2 2 2 3 3 3 3 3 3 2 2 2 2 2 1 1 1 1 1 0 0 0 0
21 21 19 16 12 9 5 4 5 6 6 7 7 7 6 5 4 4 4 4 4 3 2 2 2 2 2 2 2 2 2 2 2 2 1 1 1 1 1 1 0 0 0
27 25 19 12 10 8 6 4 4 6 8 9 9 9 8 6 5 4 4 5 5 4 2 1 1 1 1 1 1 1 2 2 2 2 2 1 1 1 1 1 0 0 0
31 25 16 10 9 8 7 4 4 6 9 10 10 10 9 6 4 3 3 4 4 4 3 1 0 0 0 0 0 1 1 2 2 2 2 1 1 1 1 1 1 0 0
Wind_Speed
2 2 2 2 3 2 3 3 3 3 2 3 3 4 3 3 2 3 5 12 12 11 11 11 11 11 11 11 11 11 10 10 10 9 9 9 8 8 8 8 7 7 6
2 2 1 1 1 2 2 2 2 2 2 3 3 3 3 3 3 3 5 8 12 12 12 12 12 12 12 12 12 12 12 11 11 10 10 10 9 9 9 9 8 8 7
3 2 2 2 2 2 2 2 3 3 3 3 4 4 4 3 3 3 4 5 7 11 13 13 13 12 13 13 13 13 13 12 12 11 11 11 10 10 10 10 10 9 8
4 3 3 2 3 2 2 2 2 2 2 2 2 3 3 3 4 4 4 5 5 7 11 15 14 13 14 14 14 15 14 14 13 13 12 12 12 11 11 11 11 10 10
5 4 3 2 3 3 2 3 2 2 2 2 3 4 4 4 4 6 6 6 6 6 6 11 15 14 15 16 16 16 15 15 14 14 14 14 14 13 12 12 12 11 11
4 3 3 3 3 2 2 2 2 2 2 3 4 3 3 4 4 5 6 6 6 7 7 7 9 11 16 16 16 16 16 16 15 15 15 15 15 14 14 13 13 13 12
4 3 2 2 3 2 3 3 2 3 3 3 2 3 4 5 5 5 5 4 5 6 6 7 7 7 8 16 16 16 17 17 16 16 16 16 16 15 14 14 14 14 13
5 5 4 3 3 2 3 2 2 2 3 2 2 2 2 2 3 5 3 4 4 3 4 6 6 7 6 6 10 17 17 17 17 17 16 16 16 16 15 15 15 15 14
5 4 4 4 3 3 3 3 3 4 3 2 2 2 1 2 2 2 3 3 3 3 3 4 6 7 8 5 6 12 16 15 15 16 15 15 15 15 15 15 15 15 15
5 5 5 4 3 2 3 3 3 3 3 3 2 2 3 2 1 2 2 2 2 3 3 4 3 3 4 4 4 7 12 13 14 14 14 13 13 13 14 15 16 16 15
5 5 4 4 3 3 3 3 1 2 2 3 2 2 2 2 3 2 3 3 2 2 3 3 3 2 3 3 2 3 8 10 11 11 11 11 11 11 12 13 15 15 15
4 5 5 4 4 3 3 2 2 3 3 3 2 2 2 2 2 2 3 3 3 3 3 2 2 2 1 2 3 4 6 7 8 9 9 9 9 9 10 10 12 13 14
3 5 5 4 4 3 3 3 3 3 3 3 3 3 2 2 2 2 2 3 3 3 3 2 1 1 1 1 2 3 4 6 6 6 7 7 7 7 8 8 9 10 11
3 4 5 4 4 4 4 3 3 4 3 3 4 3 2 3 2 2 2 2 3 3 2 1 0 1 0 1 2 2 2 5 5 5 6 6 6 5 6 6 6 6 6
3 4 5 5 4 4 4 3 2 2 2 2 3 2 2 2 2 1 2 2 2 3 3 2 1 1 1 0 1 1 1 4 5 4 4 5 4 4 4 4 4 4 4
3 3 4 4 4 4 4 3 3 3 2 2 2 1 1 2 2 2 2 2 2 2 2 2 1 1 1 1 1 0 1 4 5 5 5 4 4 3 3 3 3 3 3
3 4 4 4 4 4 4 4 4 3 3 2 2 1 1 1 1 2 2 2 2 1 2 3 1 1 1 1 1 1 1 2 2 4 4 4 4 3 3 3 2 2 2
4 4 4 4 4 4 4 4 4 3 3 2 2 1 1 1 1 1 2 2 2 2 2 3 2 1 1 0 1 1 1 0 1 4 5 5 5 4 4 3 2 1 1
4 5 5 5 4 4 4 4 3 3 2 2 1 1 1 1 1 1 2 2 2 2 1 2 2 1 1 1 1 1 1 1 1 3 4 5 5 4 3 3 3 2 2
5 5 5 5 5 4 4 3 3 3 3 2 1 1 0 0 1 2 2 2 2 2 2 2 1 1 1 1 0 1 1 1 1 1 1 3 4 5 4 3 3 2 2
6 5 5 5 4 4 4 4 3 4 3 2 2 1 1 2 1 1 2 2 2 2 2 1 1 0 1 1 1 1 1 1 1 1 0 1 2 2 2 3 3 3 3
4 5 5 5 5 4 4 4 4 3 3 3 2 2 3 3 2 1 0 1 1 2 3 2 1 1 1 1 2 2 1 1 1 0 1 0 1 1 2 2 3 3 2
4 4 5 4 4 3 5 5 4 4 4 3 3 2 2 2 2 1 2 2 1 1 3 2 1 2 1 1 2 2 2 2 2 1 0 1 1 0 1 2 5 4 3
5 4 4 4 4 3 5 5 5 4 4 3 3 2 2 2 1 1 1 1 1 1 1 1 1 1 1 1 2 3 3 2 1 0 0 1 0 1 1 2 4 4 3
4 4 4 5 4 4 4 5 4 4 3 4 3 2 2 2 2 2 1 1 1 1 0 1 1 1 2 2 1 1 2 2 1 0 0 1 0 0 1 2 3 5 4
4 3 3 4 4 4 4 5 5 3 4 3 3 4 3 3 3 1 1 1 1 1 1 1 1 2 3 3 3 2 1 1 1 0 1 0 0 0 0 1 2 3 3
Wind_Direction
162 165 171 170 187 182 182 190 202 204 210 227 228 223 234 243 216 159 158 177 182 186 192 198 202 204 206 207 208 208 209 210 211 212 214 216 217 216 214 214 214 215 216
148 159 168 162 193 188 177 179 197 198 221 232 237 238 240 235 212 178 167 184 191 194 200 205 208 209 210 211 212 212 213 216 215 216 219 220 221 220 219 218 216 217 218
155 166 197 192 198 189 190 197 209 210 218 226 227 234 237 234 225 208 186 182 193 204 208 211 214 214 214 215 217 218 219 220 219 218 219 220 221 221 220 221 220 220 222
174 183 200 202 193 205 200 196 211 223 232 238 234 240 234 222 220 218 210 202 197 199 208 213 214 215 216 219 222 223 223 223 223 220 219 220 222 222 222 224 224 224 224
182 187 196 192 196 205 206 222 189 207 226 239 245 232 230 221 216 223 219 218 208 195 191 204 212 215 218 222 224 226 226 225 223 222 222 223 225 223 224 225 225 226 225
185 192 198 196 213 208 208 223 198 213 226 234 258 257 237 229 219 222 221 221 211 206 203 196 201 216 221 223 224 225 226 226 223 223 224 224 226 225 225 225 226 227 227
190 202 222 195 221 218 209 219 221 230 236 231 251 274 261 239 223 222 222 226 219 211 204 191 191 200 210 221 224 224 225 227 225 224 224 225 226 226 225 226 227 228 229
194 207 203 215 218 221 221 228 230 248 255 226 222 268 284 287 258 235 214 223 231 221 218 210 197 198 203 196 212 221 225 228 229 228 227 226 228 228 227 228 227 226 227
195 213 196 218 224 221 209 216 226 235 250 256 223 226 259 272 299 280 246 225 212 215 227 221 212 206 206 201 199 211 218 222 227 230 230 229 228 228 228 229 228 227 228
200 206 203 210 217 229 213 221 213 230 240 256 259 235 243 261 277 301 298 276 236 226 235 253 242 217 202 197 201 188 204 214 222 229 232 232 232 231 230 230 232 232 231
205 208 202 204 208 223 226 223 211 237 250 250 258 260 255 250 237 246 278 290 292 256 231 236 243 227 204 194 191 184 192 204 214 223 231 235 238 238 236 235 237 237 237
203 202 200 196 206 220 217 210 219 232 239 251 262 269 264 255 243 238 259 276 275 271 245 232 232 218 191 169 187 180 181 192 204 214 225 232 237 240 241 243 243 243 243
199 195 197 182 200 214 216 210 218 233 230 234 243 257 266 270 275 266 267 277 285 284 263 243 235 210 230 167 138 150 175 183 194 207 218 224 228 235 240 247 251 252 251
204 178 174 179 191 206 222 206 221 227 218 225 246 248 259 267 269 271 266 278 291 288 282 273 249 147 96 117 152 183 168 179 189 200 210 214 220 229 236 243 251 254 256
199 170 173 185 195 203 219 220 223 237 224 225 248 249 249 276 273 272 262 247 261 286 298 307 356 36 35 75 148 167 176 173 176 192 205 210 216 225 230 234 242 247 249
206 170 177 190 197 200 205 212 223 224 216 224 228 252 277 292 306 297 298 294 264 265 282 295 296 335 356 348 79 166 199 167 176 187 190 195 199 206 211 215 221 232 234
199 190 193 198 198 201 203 205 219 210 213 223 242 231 246 289 325 318 315 310 309 299 281 298 329 329 336 348 347 299 219 171 163 178 179 180 182 183 188 192 195 216 215
201 198 199 199 204 204 198 203 220 214 210 214 229 247 276 291 306 304 310 301 296 283 277 290 301 286 287 290 283 273 282 162 144 165 174 178 180 175 173 165 157 158 178
203 204 199 201 204 200 195 199 206 205 210 215 220 221 265 315 313 320 301 307 310 308 298 281 285 290 320 341 326 312 326 353 204 153 164 178 181 170 164 163 162 163 160
200 199 199 200 195 191 191 194 197 197 197 193 184 186 169 45 329 308 287 306 307 309 294 273 278 305 348 330 352 328 319 307 299 188 145 166 169 165 163 158 161 163 167
202 192 197 198 190 190 198 194 198 196 181 180 191 182 136 98 76 343 316 337 328 313 301 283 274 325 353 359 352 318 324 303 318 41 82 154 149 152 156 151 152 159 160
199 194 196 192 191 197 168 169 185 176 175 181 193 190 166 144 149 162 342 354 313 303 316 316 323 339 340 352 336 316 335 325 305 13 24 320 139 144 150 147 136 135 150
194 196 203 190 176 171 163 156 183 181 175 179 188 200 224 151 169 190 211 209 208 250 262 291 325 325 333 339 315 305 307 300 283 272 333 269 158 127 129 132 149 147 143
195 194 196 189 176 179 168 166 182 187 179 179 185 193 183 127 55 8 268 228 233 244 267 248 289 309 326 309 291 285 278 271 247 263 172 254 219 185 128 144 175 172 168
199 196 191 183 178 178 178 172 181 189 192 190 176 151 150 134 88 20 287 256 252 266 357 55 197 255 273 268 279 305 298 297 294 268 27 288 287 263 196 172 177 182 181
201 195 189 184 179 173 174 174 192 200 198 191 162 139 118 125 126 93 295 290 272 274 280 271 247 246 236 233 233 233 285 295 319 331 58 324 321 19 286 188 174 178 197